Main page
METAR-TAF:

METAR-TAF

Airports :

Hastings Municipal Airport

Hastings, Nebraska, United States

latitude: 40-36-02N, longitude: 098-25-33W, elevation: 1952 ft

Current weather observation

The report was made 31 minutes ago, at 14:53 UTC
Wind 23 mph from the North with gusts up to 30 mph
Temperature 70°F
Humidity 56%
Pressure 30.09 in. Hg
Visibility: 10 miles
Clear sky

METAR: KHSI 281453Z AUTO 01020G26KT 10SM CLR 21/12 A3009 RMK AO2 PK WND 03032/1413 SLP177 T02110117 51014

Time: 10:24 (15:24 UTC)


TAF: missing

Weather observations and forecasts of more than 4000 airports (METAR and TAF reports).

The available stations are represented by yellow and red dots on the map.

Hover mouse over dot to see the name of the station.

Then click to see weather observations and forecasts.

To change the map : click on the green buttons with a black cross to zoom in, on the green button with a dash to zoom out, or on the green arrows for adjacent maps.


METAR-TAF: